Weather History for Hanford, CA

Change the Weather History Date:

Sunday, March 9, 2014

  Actual Average Record
Temperature  
Mean Temperature 62 °F 55 °F  
Max Temperature 74 °F 67 °F 79 °F (2004)
Min Temperature 49 °F 42 °F 32 °F (2012)
Degree Days  
Heating Degree Days 3    
Month to date heating degree days 58  
Since 1 July heating degree days 1835  
Cooling Degree Days 0    
Month to date cooling degree days 0  
Year to date cooling degree days 0  
Growing Degree Days 12 (Base 50)    
Moisture  
Dew Point 49 °F    
Average Humidity 65    
Maximum Humidity 89    
Minimum Humidity 41    
Precipitation  
Precipitation 0.00 in 0.07 in 0.08 in (1999)
Month to date precipitation 0.01 0.67  
Year to date precipitation 1.77 4.44  
Since 1 July precipitation 2.16 7.78  
Snow  
Snow 0.00 in - - ()
Month to date snowfall 0.0  
Since 1 July snowfall 0.0  
Snow Depth 0.00 in    
Sea Level Pressure  
Sea Level Pressure 30.15 in    
Wind  
Wind Speed 3 mph (NNE)    
Max Wind Speed 9 mph    
Max Gust Speed 11 mph    
Visibility 8 miles    
Events      
T = Trace of Precipitation, MM = Missing Value Source: NWS Daily Summary

Daily Weather History Graph

Daily Weather History Graph

Search for Another Location

Airport:

Trip Planner

Search our weather history database for the weather conditions in past years. The results will help you decide how hot, cold, wet, or windy it might be!

Date:

Astronomy

Mar. 09, 2014 Rise Set
Actual Time 7:17 AM PDT 7:00 PM PDT
Civil Twilight 6:52 AM PDT 7:26 PM PDT
Nautical Twilight 6:22 AM PDT 7:56 PM PDT
Astronomical Twilight 5:52 AM PDT 8:26 PM PDT
Moon 1:04 PM PDT (3/9) 3:40 AM PDT (3/9)
Length of Visible Light 12h 34m
Length of Day
11h 42m
First Quarter, 62% of the Moon is Illuminated
Mar 9
First Quarter
Mar 16
Full
Mar 23
Last Quarter
Mar 30
New
Apr 7
First Quarter

Hourly Weather History & Observations

Time (PDT) Temp. Dew Point Humidity Pressure Visibility Wind Dir Wind Speed Gust Speed Precip Events Conditions
12:53 AM 53.1 °F 46.0 °F 77% 30.21 in 8.0 mi Calm Calm - N/A   Clear
1:53 AM 51.1 °F 46.9 °F 86% 30.21 in 7.0 mi Calm Calm - N/A   Clear
3:53 AM 52.0 °F 48.0 °F 86% 30.20 in 6.0 mi Calm Calm - N/A   Clear
4:53 AM 51.1 °F 48.0 °F 89% 30.18 in 6.0 mi ESE 3.5 mph - N/A   Clear
5:53 AM 52.0 °F 46.9 °F 83% 30.18 in 6.0 mi Calm Calm - N/A   Haze
6:53 AM 50.0 °F 46.0 °F 86% 30.17 in 5.0 mi Calm Calm - N/A   Clear
7:53 AM 50.0 °F 46.9 °F 89% 30.19 in 4.0 mi NNW 3.5 mph - N/A   Clear
8:53 AM 57.0 °F 48.0 °F 72% 30.20 in 5.0 mi NW 4.6 mph - N/A   Haze
9:53 AM 60.1 °F 46.9 °F 62% 30.19 in 6.0 mi NNE 3.5 mph - N/A   Haze
10:53 AM 64.0 °F 46.9 °F 54% 30.20 in 7.0 mi NW 3.5 mph - N/A   Clear
11:53 AM 66.9 °F 46.9 °F 49% 30.20 in 8.0 mi NNW 4.6 mph - N/A   Clear
12:53 PM 69.1 °F 48.0 °F 47% 30.18 in 8.0 mi NNE 6.9 mph - N/A   Clear
1:53 PM 70.0 °F 48.9 °F 47% 30.16 in 9.0 mi NE 9.2 mph - N/A   Clear
2:53 PM 71.1 °F 50.0 °F 47% 30.14 in 9.0 mi NE 6.9 mph - N/A   Clear
3:53 PM 73.0 °F 48.0 °F 41% 30.12 in 10.0 mi ENE 5.8 mph - N/A   Clear
4:53 PM 73.0 °F 51.1 °F 46% 30.11 in 10.0 mi ENE 4.6 mph - N/A   Clear
5:53 PM 71.1 °F 53.1 °F 53% 30.10 in 10.0 mi ENE 4.6 mph - N/A   Clear
6:53 PM 69.1 °F 52.0 °F 54% 30.09 in 10.0 mi NE 3.5 mph - N/A   Clear
7:53 PM 63.0 °F 53.1 °F 70% 30.10 in 10.0 mi Calm Calm - N/A   Clear
8:53 PM 64.0 °F 51.1 °F 63% 30.10 in 10.0 mi Calm Calm - N/A   Clear
9:53 PM 62.1 °F 51.1 °F 67% 30.12 in 10.0 mi West 3.5 mph - N/A   Clear
10:53 PM 61.0 °F 50.0 °F 67% 30.12 in 10.0 mi Calm Calm - N/A   Clear
11:53 PM 60.1 °F 50.0 °F 69% 30.11 in 10.0 mi SW 4.6 mph - N/A   Clear
12:53 AM 59.0 °F 48.0 °F 67% 30.10 in 9.0 mi SSW 3.5 mph - N/A   Clear